Home   Weather   's-Hertogenbosch   Past weeks

Flag for Netherlands Past Weather in 's-Hertogenbosch, Netherlands — Yesterday and Last 2 Weeks

Now
32 °F

Ice fog.


Feels Like: 27 °F
Forecast: 30 / 42 °F
Wind: 5 mph from Southeast

Location: Volkel

Current Time: Dec 6, 2016 at 7:14:43 pm

Latest Report: Dec 6, 2016 at 6:25 pm


Visibility: 4 mi

Pressure: 30.42 "Hg

Humidity: 87%

Dew Point: 28 °F

Location of 's-HertogenboschLocation

Past Weather in 's-Hertogenbosch — Graph

°F

's-Hertogenbosch Temperature Yesterday

Maximum temperature yesterday: 39 °F (at 2:25 pm)
Minimum temperature yesterday: 23 °F (at 7:55 am)
Average temperature yesterday: 29 °F

High & Low Weather Summary for the Past Weeks

 TemperatureHumidityPressure
High55 °F (Nov 21, 5:25 pm)100% (Nov 23, 12:25 am)30.57 "Hg (Nov 23, 12:25 am)
Low19 °F (Nov 30, 12:55 am)57% (Nov 25, 1:25 pm)29.45 "Hg (Nov 21, 5:25 pm)
Average37 °F87%30.23 "Hg
* Reported Nov 21 5:25 pm — Dec 6 5:55 pm, 's-Hertogenbosch, Weather by CustomWeather, © 2016

Note: Actual official high and low records may vary slightly from our data, if they occured in-between our weather recording intervals... More about our weather records

Advertising

's-Hertogenbosch Weather History for the Previous 24 Hours

Scroll right to see more
 ConditionsComfort  
Time TempWeatherWind HumidityBarometerVisibility
5:55 pm
Tue, Dec 6
34 °FFog.3 mph87%30.42 "Hg4 mi
5:25 pm34 °FFog.3 mph93%30.42 "Hg4 mi
4:55 pm36 °FFog.5 mph87%30.42 "Hg4 mi
4:25 pm37 °FFog.3 mph81%30.42 "Hg6 mi
3:55 pm39 °FChilly.3 mph81%30.42 "HgN/A
3:25 pm39 °FHaze.3 mph87%30.42 "Hg6 mi
2:55 pm41 °FQuite cool.3 mph81%30.42 "HgN/A
2:25 pm41 °FQuite cool.3 mph81%30.42 "HgN/A
1:55 pm41 °FQuite cool.3 mph76%30.42 "HgN/A
1:25 pm39 °FFog.6 mph81%30.42 "Hg6 mi
12:55 pm37 °FFog.5 mph87%30.42 "Hg6 mi
12:25 pm37 °FFog.3 mph81%30.42 "Hg5 mi
11:59 am36 °FFog.5 mph87%30.42 "Hg5 mi
11:25 am34 °FFog.3 mph87%30.42 "Hg4 mi
10:55 am32 °FIce fog.2 mph93%30.42 "Hg4 mi
10:25 am30 °FIce fog.2 mph93%30.42 "Hg3 mi
9:55 am28 °FIce fog.3 mph93%30.42 "Hg2 mi
9:25 am25 °FIce fog.1 mph100%30.42 "Hg1 mi
8:59 am25 °FIce fog.1 mph100%30.39 "Hg1 mi
8:55 am25 °FIce fog.1 mph100%30.39 "Hg1 mi
8:25 am23 °FIce fog.1 mph100%30.39 "Hg0 mi
7:59 am23 °FIce fog.1 mph93%30.39 "Hg1 mi
7:25 am25 °FIce fog.1 mph93%30.39 "Hg1 mi
6:59 am21 °FIce fog.1 mph93%30.39 "Hg1 mi
6:25 am23 °FIce fog.2 mph100%30.36 "Hg0 mi
6:04 am25 °FIce fog.1 mph100%30.36 "Hg0 mi
5:25 am23 °FIce fog.2 mph100%30.36 "Hg0 mi
5:01 am25 °FIce fog.1 mph93%30.36 "Hg1 mi
4:25 am25 °FIce fog.1 mph100%30.36 "Hg1 mi
4:00 am25 °FIce fog.2 mph93%30.36 "Hg1 mi
3:55 am25 °FIce fog.2 mph93%30.36 "Hg1 mi
3:25 am25 °FIce fog.3 mph100%30.36 "Hg1 mi
2:59 am25 °FIce fog.3 mph93%30.36 "Hg1 mi
2:55 am25 °FIce fog.2 mph93%30.36 "Hg1 mi
2:25 am25 °FIce fog.1 mph93%30.36 "Hg2 mi
1:55 am27 °FIce fog.No wind93%30.33 "Hg2 mi
1:25 am27 °FIce fog.2 mph100%30.33 "Hg2 mi
12:55 am27 °FIce fog.3 mph100%30.33 "Hg2 mi
12:25 am25 °FIce fog.1 mph100%30.33 "Hg2 mi
11:55 pm
Mon, Dec 5
27 °FIce fog.1 mph100%30.33 "Hg2 mi
11:25 pm25 °FIce fog.5 mph93%30.33 "Hg1 mi
11:04 pm25 °FIce fog.1 mph93%30.33 "Hg3 mi
10:55 pm25 °FIce fog.1 mph93%30.33 "Hg2 mi
10:25 pm27 °FIce fog.2 mph100%30.33 "Hg2 mi
9:55 pm27 °FIce fog.2 mph93%30.33 "Hg2 mi
9:25 pm25 °FIce fog.1 mph100%30.33 "Hg3 mi
8:59 pm27 °FIce fog.1 mph93%30.33 "Hg3 mi
8:55 pm27 °FIce fog.1 mph100%30.33 "Hg2 mi
8:25 pm27 °FIce fog.1 mph93%30.33 "Hg3 mi
7:55 pm27 °FIce fog.1 mph100%30.33 "Hg4 mi
7:25 pm27 °FChilly.No wind100%30.33 "HgN/A
Weather by CustomWeather, © 2016

See weather overviewHow to use our weather pages